Temperature
26 26 25 26 27 27 26 26 25 25 26 26 25 25 25 25 25 24 24 24 23 22 22 21 21 20 20 20 19 19 18 18 17 17 17 17 16 16 16 16 16 16 16 16
26 25 27 27 27 27 26 26 25 26 26 26 25 25 26 26 25 25 25 24 23 23 22 21 21 20 20 19 19 19 18 18 17 17 17 16 16 16 16 16 16 16 16 16
26 26 27 27 27 26 26 25 25 25 25 26 25 24 25 26 26 25 25 24 24 23 22 21 21 20 20 20 19 19 18 18 17 17 17 16 16 16 16 16 16 16 16 15
26 27 27 26 26 26 25 26 26 25 24 24 25 23 24 25 25 25 24 24 24 23 22 21 21 20 20 19 19 19 18 18 17 17 16 16 16 16 16 16 16 16 16 15
26 26 26 26 26 26 26 26 25 25 24 24 25 24 24 25 24 24 24 24 24 23 22 22 21 20 20 19 19 19 18 18 17 17 16 16 16 16 16 16 16 16 16 15
26 27 26 26 27 27 26 25 25 25 24 23 25 24 24 24 25 25 25 24 24 23 22 21 21 20 19 19 19 18 18 17 17 17 16 16 16 16 16 16 16 16 15 15
25 26 26 26 26 26 25 24 23 23 22 24 26 25 24 25 26 25 25 24 23 23 22 21 20 20 19 19 18 18 18 17 17 17 17 16 16 16 16 16 16 16 15 15
24 24 26 26 25 25 25 25 23 23 23 24 25 24 24 26 26 25 25 24 23 22 22 21 20 19 19 19 18 18 17 17 17 17 17 17 16 16 16 16 16 16 16 16
25 24 26 26 26 26 25 25 25 24 24 24 24 24 25 25 25 25 24 24 23 22 21 21 20 19 19 18 18 18 17 17 17 17 17 17 17 16 16 16 16 16 16 15
25 24 25 25 25 25 25 25 25 24 23 23 24 24 23 24 24 24 24 24 23 22 21 21 20 19 19 18 18 18 17 17 17 17 17 17 17 16 16 16 16 16 16 15
25 24 24 24 24 24 24 24 24 24 24 23 23 23 25 24 24 24 24 23 23 22 21 21 20 19 19 18 18 17 17 17 17 17 17 16 16 16 16 16 16 16 16 15
24 24 24 24 25 25 24 24 24 23 23 24 23 23 26 25 24 24 24 23 23 22 21 21 20 19 19 18 18 17 17 17 17 17 17 16 16 16 16 16 16 16 16 16
23 23 23 23 23 24 24 24 24 24 23 23 23 23 25 25 24 23 23 23 22 22 21 20 20 19 19 18 18 18 17 17 17 17 16 16 16 16 16 16 16 16 16 16
21 22 22 22 22 23 23 23 23 23 22 23 23 23 24 24 23 23 23 22 22 21 21 20 20 19 19 18 18 18 17 17 17 17 16 16 16 16 16 16 16 16 16 16
22 22 22 23 23 23 23 23 23 23 23 23 23 23 24 24 23 23 22 22 21 21 20 20 19 19 19 19 18 18 17 17 17 17 16 16 16 16 16 16 16 16 15 15
22 21 22 22 23 23 22 23 23 23 23 23 23 23 24 24 23 23 22 22 21 20 20 19 19 19 19 18 18 18 18 17 17 17 16 16 16 16 16 16 16 15 15 15
21 21 21 21 22 22 21 23 23 23 23 23 22 23 23 23 23 22 22 21 21 20 20 19 19 19 18 18 18 18 17 17 17 16 16 16 16 16 15 15 15 15 15 15
21 21 20 20 21 20 22 24 24 23 23 23 23 23 23 23 22 22 21 21 21 20 19 19 19 18 18 18 18 18 17 17 17 16 16 16 15 15 15 15 15 15 15 15
21 20 19 20 19 21 22 23 23 22 22 23 22 22 22 22 22 21 21 20 20 19 19 19 18 18 18 18 17 17 17 17 17 16 16 16 15 15 15 15 15 15 15 14
20 20 19 19 19 19 21 22 22 22 20 22 22 22 21 21 20 20 20 19 19 19 18 18 18 17 17 17 17 17 17 17 16 16 16 16 15 15 15 15 15 15 14 14
19 19 18 18 19 20 21 21 21 20 20 21 21 20 20 20 19 19 19 18 18 18 17 17 17 17 17 17 17 16 16 16 16 16 16 15 15 15 15 14 14 14 14 14
19 19 18 18 18 19 21 21 20 20 20 20 20 20 19 19 18 18 18 18 17 17 17 17 17 17 16 16 16 16 16 16 16 16 15 15 15 15 14 14 14 14 14 14
19 20 19 19 19 20 20 20 20 20 20 19 19 18 18 18 18 17 17 17 17 17 16 16 16 16 16 16 16 16 16 16 16 15 15 15 15 14 14 14 14 14 13 13
20 20 19 19 20 20 19 19 19 19 19 18 18 18 17 17 17 17 17 16 16 16 16 16 16 15 15 15 15 15 15 15 15 15 15 14 14 14 14 14 13 13 13 13
18 19 18 18 19 19 19 18 18 18 18 17 17 17 17 16 16 16 16 16 16 15 15 15 15 15 15 15 15 15 15 15 14 14 14 14 14 13 13 13 13 13 13 13
18 18 17 17 19 18 18 18 17 17 17 16 16 16 16 16 16 16 15 15 15 15 15 15 15 15 15 14 14 14 14 14 14 14 13 13 13 13 13 12 12 12 12 13
Wind_Speed
7 6 5 3 4 3 2 2 0 2 1 1 1 1 2 4 4 4 6 7 7 8 8 9 8 7 6 4 5 7 5 5 5 3 2 3 2 2 2 2 4 4 4 5
6 6 4 3 3 3 3 2 1 1 1 1 1 2 3 4 4 4 4 6 8 8 8 8 9 7 6 5 3 6 6 5 6 3 2 3 2 2 3 2 2 2 3 4
7 3 3 5 5 5 3 2 1 1 2 4 4 3 3 4 3 4 2 3 6 8 9 9 8 7 6 5 4 5 6 6 6 5 3 3 3 2 2 1 1 2 3 3
6 4 4 5 5 6 3 1 2 3 5 4 4 2 2 5 4 4 3 3 4 7 8 9 9 7 6 5 4 5 6 6 6 5 3 3 2 1 1 1 2 2 3 3
5 4 5 6 4 4 2 1 3 6 6 6 6 4 2 6 5 4 4 4 4 7 8 9 9 8 6 5 4 4 6 6 6 4 4 2 2 1 1 1 2 2 2 2
6 4 4 5 4 3 1 3 6 7 6 6 7 4 1 4 4 5 5 5 4 7 8 8 9 8 7 6 5 4 5 6 5 3 4 3 2 2 2 2 2 1 2 1
9 9 6 5 5 5 6 5 3 5 6 4 3 2 2 6 5 5 5 5 6 7 8 8 8 8 7 7 6 4 5 5 5 3 3 3 3 2 2 3 3 2 2 1
8 8 8 6 6 5 7 7 4 3 2 0 2 2 4 8 7 6 6 6 7 7 8 8 8 7 7 7 6 5 5 5 4 3 2 3 3 2 1 2 2 2 2 2
4 3 4 4 5 6 6 6 7 6 5 4 2 4 5 7 7 6 6 6 6 7 8 8 8 7 7 7 5 4 5 5 5 4 3 2 2 2 2 1 2 2 2 2
6 4 5 4 4 5 6 6 4 4 3 3 3 4 4 6 7 5 5 6 6 6 7 7 8 7 7 7 5 5 4 5 5 4 3 2 2 2 2 1 2 2 2 2
8 6 6 7 6 6 6 7 5 4 4 2 2 2 6 7 7 5 4 5 5 6 6 6 6 6 6 7 6 5 4 4 4 4 3 3 3 3 2 2 2 2 2 2
5 6 6 7 5 4 5 6 6 5 4 4 3 1 5 7 7 6 5 5 5 6 6 6 6 6 6 6 6 5 5 4 4 4 4 3 3 3 3 2 2 2 2 2
4 6 6 5 6 6 7 6 7 7 6 6 5 2 5 6 6 5 5 4 5 5 6 5 5 4 5 5 6 5 5 4 4 3 3 3 3 3 3 3 2 2 2 1
4 7 8 6 3 3 6 8 8 8 7 7 5 3 4 4 5 4 4 4 4 4 4 5 4 4 4 5 5 5 5 4 5 4 3 3 3 3 3 2 2 2 2 2
6 9 10 10 7 7 8 10 10 11 10 9 7 4 2 3 4 3 3 3 3 4 3 2 3 3 3 4 4 4 5 5 5 5 4 3 3 3 2 2 2 1 1 1
7 8 10 12 10 9 11 13 13 13 12 11 10 8 3 0 2 2 2 2 2 2 4 3 2 2 3 3 4 4 4 5 5 5 5 4 3 3 3 3 2 1 1 1
8 9 9 10 9 8 12 12 13 12 11 11 10 6 2 2 1 1 1 2 3 2 2 3 2 2 2 2 3 3 3 4 4 4 4 4 3 3 3 3 3 3 2 1
9 9 6 8 8 11 5 2 4 6 6 6 5 4 3 2 2 0 1 2 1 1 1 2 2 1 1 1 2 2 2 4 5 4 4 3 3 3 2 3 4 3 3 2
10 9 7 7 9 10 6 5 5 5 6 4 5 4 3 3 3 1 2 3 3 2 2 1 1 1 1 1 1 2 2 3 4 4 4 4 4 3 3 3 3 3 3 3
10 10 9 8 8 8 3 3 1 3 6 3 2 2 2 3 3 1 3 3 2 3 2 1 0 1 1 0 1 2 2 3 3 3 3 3 4 4 4 3 3 3 3 3
10 10 11 11 10 7 2 3 2 5 2 2 1 1 2 2 1 1 2 2 2 2 1 1 1 1 1 1 1 2 3 2 2 3 3 3 3 4 4 3 3 3 3 3
8 8 10 10 11 7 3 4 4 1 2 1 0 1 3 3 2 2 2 1 1 1 1 1 1 1 1 1 2 3 2 2 1 2 3 3 3 3 3 3 3 3 3 4
8 7 5 6 4 1 1 1 1 0 1 1 2 2 3 3 3 3 2 2 1 1 1 1 1 1 2 2 2 2 2 1 1 1 1 2 3 2 3 3 3 3 3 3
7 6 7 7 6 4 3 2 2 3 3 2 3 3 4 4 5 4 3 2 2 2 1 2 2 2 3 2 2 2 1 1 1 2 2 2 3 2 2 2 3 3 4 4
6 5 8 11 8 5 5 4 3 4 3 3 4 4 5 5 6 5 4 2 2 2 2 3 3 3 3 3 2 1 2 1 2 2 2 2 3 3 2 2 2 3 3 4
10 10 10 9 8 6 6 4 4 4 4 4 4 5 5 6 6 6 4 3 3 3 3 4 3 3 3 3 2 2 2 2 3 3 2 2 2 2 2 2 1 1 1 2
Wind_Direction
217 227 232 231 242 258 248 233 213 105 177 216 235 203 182 172 175 182 173 176 168 152 151 144 141 140 134 130 127 124 134 116 106 92 90 93 84 69 69 72 80 85 84 89
216 227 239 240 254 272 258 242 197 145 164 274 250 254 210 173 182 183 185 176 166 156 152 148 151 149 140 140 137 129 122 114 113 110 100 107 107 94 88 79 91 87 94 97
223 209 216 227 229 242 248 258 251 256 279 260 259 254 194 167 154 148 154 157 152 155 156 149 147 136 127 129 133 125 124 120 114 103 75 79 77 65 81 108 92 69 83 75
238 225 222 238 248 267 246 276 266 257 256 253 231 278 217 165 152 153 156 160 154 149 149 148 141 135 140 140 135 127 122 113 104 103 99 110 113 112 137 143 146 146 120 112
234 230 236 233 250 279 309 331 268 264 268 268 245 244 225 153 156 152 152 153 150 143 144 144 140 140 141 128 114 107 108 108 105 112 118 108 103 129 127 113 122 116 107 115
252 243 258 261 250 241 250 265 252 242 252 257 240 227 189 147 140 142 137 138 138 139 142 141 135 135 134 123 113 106 112 111 117 133 138 149 148 156 148 139 130 118 130 134
225 222 221 246 244 210 212 234 244 221 215 229 181 189 120 104 102 107 125 133 137 135 139 137 136 142 139 135 133 133 125 127 139 159 171 165 168 176 150 143 145 149 146 137
221 212 202 214 234 239 229 233 247 273 269 188 164 175 116 104 98 97 105 117 129 133 135 138 139 141 142 140 144 153 147 146 151 172 193 164 156 132 109 122 141 153 135 145
257 201 162 185 237 255 250 238 264 286 296 290 185 133 122 118 115 103 100 105 118 130 135 139 139 142 144 145 153 160 155 158 163 178 183 166 162 138 130 161 134 119 126 151
283 256 183 187 227 238 271 285 269 256 276 266 208 188 155 133 115 102 111 113 116 129 136 140 144 147 148 148 155 165 168 170 167 174 182 172 158 125 118 136 121 129 129 112
275 261 203 194 211 228 226 242 254 255 252 271 291 65 109 120 113 110 103 104 115 124 133 135 138 146 148 149 152 162 174 174 167 173 175 176 166 151 160 158 146 153 166 157
257 273 241 210 203 221 237 249 261 263 269 262 265 133 104 109 107 99 92 95 102 117 124 130 136 144 151 157 162 172 177 173 169 169 170 185 165 167 170 165 183 185 183 173
287 262 248 210 198 207 226 237 261 272 271 261 259 151 125 109 102 93 89 87 101 115 123 125 131 144 156 160 165 171 177 171 161 163 179 185 171 180 181 178 189 200 177 178
283 262 263 262 280 238 232 239 247 259 260 261 255 198 167 137 116 101 94 88 95 114 121 135 143 153 159 162 168 169 177 175 161 159 179 193 181 186 191 179 181 209 180 182
252 259 266 273 272 269 259 250 246 248 255 262 267 259 234 146 128 124 121 123 118 119 119 128 145 152 161 165 172 173 173 176 170 170 183 195 189 187 179 159 171 204 186 177
243 259 263 265 263 262 262 253 247 248 252 257 267 267 262 30 139 151 154 142 130 125 148 155 166 174 174 174 182 181 171 173 173 174 180 175 182 181 171 170 175 184 181 155
237 250 260 261 258 263 255 244 240 241 241 248 253 257 273 245 234 194 151 153 162 151 162 165 180 199 194 198 194 190 184 173 176 176 172 165 176 175 172 180 180 178 179 171
251 250 255 262 254 248 240 243 229 236 247 252 262 273 278 291 298 217 131 140 151 152 157 163 171 203 218 200 201 215 193 175 177 181 176 167 168 166 170 178 181 179 175 173
244 243 245 251 254 255 231 221 220 231 248 248 254 254 265 272 268 231 71 62 62 70 79 97 143 211 221 209 202 217 221 192 180 186 182 178 174 168 177 189 187 183 179 185
228 240 241 245 248 253 215 154 186 244 242 219 231 244 241 225 235 130 57 56 45 39 37 36 193 242 210 202 253 233 224 201 186 191 187 181 178 176 185 197 196 183 177 183
209 222 231 244 249 254 182 165 196 236 225 122 122 340 305 267 293 3 356 13 38 46 10 333 263 191 193 224 237 253 240 227 202 182 175 174 181 188 192 188 186 184 176 173
221 221 225 233 243 240 166 193 206 173 88 78 35 330 337 350 5 333 323 322 344 1 296 266 261 203 202 223 232 258 262 255 193 166 175 177 185 195 192 183 189 186 178 179
231 235 241 238 244 140 167 230 89 121 265 299 345 1 334 317 306 308 306 284 260 251 265 253 252 229 223 222 233 253 278 284 165 162 188 179 181 184 179 184 184 182 177 183
241 252 264 262 246 238 233 244 262 271 274 317 330 317 309 300 295 289 286 273 267 270 272 256 238 231 233 220 225 225 239 214 220 199 205 189 182 188 183 182 186 185 190 196
267 259 257 260 256 262 249 251 268 288 305 315 310 307 307 300 292 284 279 267 255 263 259 248 229 231 233 236 221 202 197 199 235 216 209 209 184 180 189 205 216 208 212 208
254 254 250 256 256 259 261 265 274 289 291 299 304 301 295 291 285 282 276 269 256 252 263 267 245 234 227 227 226 217 207 194 217 217 206 203 189 183 187 189 199 304 217 195
Height
1505 1506 1508 1505 1503 1503 1505 1509 1512 1511 1507 1510 1512 1512 1511 1512 1514 1515 1516 1519 1521 1523 1526 1528 1531 1533 1535 1536 1537 1538 1539 1540 1540 1541 1542 1542 1543 1543 1544 1545 1545 1546 1546 1546
1505 1507 1502 1501 1501 1503 1505 1510 1512 1510 1507 1509 1512 1511 1508 1509 1511 1513 1514 1516 1518 1521 1524 1527 1530 1532 1534 1536 1537 1538 1539 1540 1541 1541 1542 1543 1543 1544 1544 1545 1546 1546 1547 1547
1504 1503 1500 1501 1503 1505 1507 1510 1512 1513 1510 1509 1512 1514 1509 1507 1509 1511 1513 1515 1517 1519 1522 1526 1529 1531 1533 1535 1537 1538 1539 1540 1541 1541 1542 1543 1543 1544 1544 1545 1546 1546 1547 1547
1500 1498 1500 1502 1504 1505 1510 1505 1508 1511 1516 1518 1513 1527 1512 1506 1508 1510 1512 1514 1515 1518 1521 1524 1528 1531 1533 1535 1537 1538 1539 1540 1541 1541 1542 1543 1544 1544 1545 1545 1546 1546 1547 1547
1501 1499 1500 1504 1503 1504 1506 1505 1508 1510 1514 1517 1511 1520 1514 1505 1509 1509 1510 1512 1514 1517 1520 1523 1526 1529 1532 1534 1536 1538 1538 1539 1540 1541 1542 1543 1544 1544 1545 1545 1546 1546 1547 1547
1499 1499 1500 1500 1501 1502 1505 1508 1508 1508 1514 1525 1511 1516 1518 1507 1506 1506 1508 1511 1513 1516 1519 1522 1525 1528 1532 1534 1536 1537 1538 1539 1540 1541 1542 1543 1544 1544 1545 1545 1546 1546 1547 1547
1502 1499 1499 1500 1503 1504 1505 1516 1526 1528 1529 1521 1502 1510 1514 1502 1501 1504 1507 1510 1513 1515 1518 1521 1524 1527 1530 1532 1534 1536 1538 1539 1540 1541 1542 1543 1543 1544 1545 1545 1546 1546 1547 1547
1505 1506 1498 1499 1502 1505 1505 1509 1526 1533 1527 1517 1506 1512 1508 1499 1502 1504 1507 1509 1512 1515 1518 1521 1524 1527 1529 1531 1533 1535 1537 1538 1539 1540 1542 1543 1543 1544 1545 1545 1546 1546 1546 1547
1500 1504 1496 1497 1499 1501 1505 1506 1503 1513 1514 1519 1512 1508 1504 1500 1503 1505 1507 1510 1512 1515 1517 1520 1523 1526 1528 1530 1532 1534 1536 1537 1538 1540 1541 1542 1543 1544 1544 1545 1546 1546 1546 1547
1496 1504 1499 1498 1500 1501 1502 1502 1506 1514 1526 1528 1516 1511 1512 1506 1505 1507 1508 1510 1512 1515 1517 1520 1523 1525 1527 1529 1531 1533 1535 1536 1538 1539 1540 1541 1542 1543 1544 1544 1545 1545 1546 1546
1497 1502 1502 1500 1503 1505 1505 1506 1505 1508 1511 1525 1528 1520 1498 1502 1504 1507 1509 1510 1512 1515 1517 1520 1522 1524 1526 1528 1530 1532 1534 1535 1536 1538 1539 1540 1541 1542 1543 1544 1544 1545 1545 1546
1498 1500 1503 1499 1496 1498 1501 1504 1507 1517 1515 1511 1520 1522 1497 1500 1503 1506 1509 1511 1513 1515 1517 1520 1522 1524 1525 1527 1529 1531 1532 1534 1535 1536 1537 1539 1540 1541 1542 1542 1543 1544 1545 1545
1501 1504 1509 1509 1507 1502 1502 1502 1503 1506 1509 1512 1519 1519 1499 1501 1504 1507 1510 1512 1513 1515 1517 1519 1521 1523 1524 1526 1527 1529 1531 1532 1533 1534 1536 1537 1538 1539 1540 1541 1542 1543 1543 1544
1504 1503 1507 1512 1506 1502 1504 1504 1503 1507 1513 1512 1509 1509 1503 1503 1505 1508 1510 1512 1514 1515 1517 1519 1520 1522 1524 1525 1526 1527 1529 1530 1531 1532 1533 1535 1536 1537 1538 1539 1540 1541 1542 1542
1503 1504 1501 1498 1497 1498 1501 1502 1502 1505 1505 1509 1505 1504 1502 1502 1505 1507 1510 1512 1514 1515 1517 1518 1519 1521 1522 1524 1525 1526 1527 1528 1529 1530 1531 1532 1534 1535 1536 1537 1538 1539 1540 1541
1502 1503 1502 1501 1497 1497 1500 1498 1499 1500 1501 1502 1502 1503 1499 1501 1503 1506 1508 1510 1512 1514 1516 1518 1519 1520 1521 1522 1523 1524 1525 1526 1527 1528 1529 1530 1531 1533 1533 1534 1535 1536 1537 1538
1500 1502 1506 1506 1498 1499 1503 1494 1494 1495 1495 1498 1503 1501 1499 1501 1503 1505 1507 1509 1511 1513 1515 1516 1517 1518 1519 1520 1521 1522 1523 1524 1524 1526 1526 1527 1529 1530 1531 1531 1532 1533 1534 1535
1500 1502 1505 1505 1504 1512 1495 1485 1486 1491 1492 1493 1495 1496 1498 1500 1503 1505 1506 1508 1510 1511 1513 1514 1515 1516 1517 1518 1519 1519 1520 1521 1522 1523 1524 1525 1526 1526 1527 1528 1529 1530 1531 1532
1497 1501 1505 1506 1507 1498 1491 1486 1487 1492 1494 1493 1494 1496 1498 1500 1502 1504 1505 1506 1508 1510 1511 1512 1513 1514 1515 1515 1516 1517 1518 1518 1519 1520 1521 1521 1522 1523 1524 1525 1525 1526 1528 1529
1496 1497 1503 1504 1509 1506 1491 1485 1486 1491 1496 1493 1493 1495 1497 1499 1503 1504 1505 1506 1507 1508 1509 1510 1511 1512 1513 1513 1514 1514 1515 1515 1516 1517 1518 1519 1519 1520 1520 1521 1522 1523 1524 1525
1497 1499 1502 1503 1503 1494 1486 1486 1488 1500 1497 1493 1494 1496 1497 1498 1501 1503 1504 1504 1506 1506 1507 1508 1508 1509 1509 1510 1511 1512 1513 1513 1513 1514 1515 1515 1516 1517 1517 1518 1519 1520 1521 1522
1492 1495 1497 1498 1502 1497 1485 1486 1489 1492 1491 1492 1494 1496 1497 1498 1499 1501 1502 1503 1504 1504 1505 1505 1506 1506 1507 1508 1508 1509 1509 1509 1510 1510 1511 1512 1512 1513 1514 1514 1515 1516 1517 1518
1485 1485 1486 1488 1490 1485 1484 1486 1488 1489 1491 1492 1494 1495 1497 1498 1498 1499 1500 1500 1501 1502 1502 1503 1503 1503 1504 1505 1505 1506 1506 1506 1506 1506 1507 1508 1508 1509 1510 1511 1511 1512 1513 1514
1480 1481 1483 1483 1482 1483 1485 1486 1487 1489 1490 1491 1493 1494 1495 1496 1496 1496 1497 1497 1498 1499 1499 1500 1500 1500 1501 1501 1502 1502 1502 1502 1502 1502 1503 1504 1505 1505 1506 1507 1508 1508 1509 1509
1481 1481 1482 1481 1481 1483 1484 1485 1486 1488 1488 1489 1491 1492 1493 1494 1494 1494 1494 1494 1495 1495 1496 1496 1497 1497 1497 1498 1498 1498 1499 1499 1499 1499 1500 1500 1501 1502 1502 1503 1504 1504 1505 1506
1480 1480 1482 1480 1479 1481 1482 1483 1484 1486 1487 1488 1489 1489 1490 1491 1491 1490 1490 1491 1491 1492 1492 1493 1493 1493 1494 1494 1494 1494 1495 1495 1495 1496 1496 1496 1497 1498 1499 1499 1500 1501 1502 1502